Location: Rometta
(44.2000°N, 10.0500°E)
Time: 12:20:15
(UTC+00:00)

USA 229 DEB - Pass Details

Date: 20 January 2021
Orbit: 965 x 1247 km, 63.4° (Epoch: 03 March)

Event Time Altitude Azimuth Distance (km) Brightness Sun altitude
Rises 19:41:11 0° 321° (NW) 3,970 7.2 -36.9°
Reaches altitude 10° 19:43:49 10° 320° (NW) 3,046 6.5 -37.4°
Enters shadow 19:49:18 54° 303° (WNW) 1,421 4.4 -38.3°
